IRNSS-1A (39199 NORAD) Tracking and Keplerian Element Data

This shows tracking and keplerian element data for the satellite.

Feedback or suggestion? Click here.




ElementValue
Catalog39199
NameIRNSS-1A
Epoch Orbit2139
Epoch Day106.58067104
Epoch Year2019
RAAN103.7192
Inclination30.0086
Eccentricity0.001933
Argument of Perigee188.5929
Mean Anonmoly176.0814
Mean Motion1.00273839
Decay Rate1.1E-06
L11 39199U 13034A 19106.58067104 .00000110 00000-0 00000-0 0 9992
L22 39199 30.0086 103.7192 0019330 188.5929 176.0814 1.00273839 21396

Live tracking and technical data element details for IRNSS-1A (NORAD 39199). IRNSS-1A can be tracked NOW for your location showing map with azimuth and elevation plus other details from your city location.

Track the satellite on the map from your city or location and see movement details for azimuth, elevation, latitude, longitude, range, height, and movement on the map or in text.







IsCatalogInMostPopularTable: catalog: 39199, numindb: 157
Update: records affected: 1



GetName: 39199 IRNSS-1A

Hit Count: updated at: Sat, 20 Apr 2019 00:24:45 GMT